Location: *
(28.3744°N, 81.5492°W)
Time: 03:04:54
(UTC+00:00)

SL-14 R/B - Pass Details

Date: 15 June 2025
Orbit: 499 x 531 km, 82.4° (Epoch: 11 July)

Event Time Altitude Azimuth Distance (km) Brightness Sun altitude
Exits shadow 02:47:17 44° 274° (W) 739 4.2 -25.6°
Maximum altitude 02:47:22 44° 278° (W) 739 4.2 -25.6°
Drops below altitude 10° 02:51:07 10° 351° (N) 1,781 6.7 -26.2°
Sets 02:53:21 0° 358° (N) 2,674 7.6 -26.5°
